When you browse on this site, cookies collect data to enhance your experience and personalize the content and advertising you see.
Visit our Privacy Policy to learn more. By continuing to use the site, you agree to this use of cookies and data.
  • In Netherlands
  • List of Countries
  • For 7 days
  • Water Temperature
  • Satellite Maps
  • Weather Map
  • Weather Widgets
  • user-avatar
    Login

    Hourly Weather Kanye

    Today, 16 July, Tuesday

    Time Temperature Precipitation Wind Pressure Humidity
    00:00 +9°C° 0 mm 1 mps 654 mmHg 44%
    01:00 +9°C° 0 mm 1 mps 654 mmHg 45%
    02:00 +8°C° 0 mm 1 mps 654 mmHg 46%
    03:00 +7°C° 0 mm 2 mps 653 mmHg 47%
    04:00 +7°C° 0 mm 2 mps 653 mmHg 48%
    05:00 +6°C° 0 mm 2 mps 653 mmHg 48%
    06:00 +7°C° 0 mm 2 mps 654 mmHg 46%
    07:00 +8°C° 0 mm 2 mps 655 mmHg 45%
    08:00 +8°C° 0 mm 2 mps 655 mmHg 43%
    09:00 +11°C° 0 mm 3 mps 656 mmHg 38%
    10:00 +14°C° 0 mm 4 mps 657 mmHg 33%
    11:00 +19°C° 0 mm 5 mps 658 mmHg 29%
    12:00 +20°C° 0 mm 5 mps 657 mmHg 25%
    13:00 +21°C° 0 mm 5 mps 657 mmHg 21%
    14:00 +22°C° 0 mm 5 mps 656 mmHg 17%
    15:00 +22°C° 0 mm 4 mps 656 mmHg 17%
    16:00 +21°C° 0 mm 4 mps 656 mmHg 17%
    17:00 +21°C° 0 mm 3 mps 656 mmHg 17%
    18:00 +18°C° 0 mm 3 mps 655 mmHg 23%
    19:00 +15°C° 0 mm 2 mps 654 mmHg 28%
    20:00 +12°C° 0 mm 2 mps 654 mmHg 33%
    21:00 +10°C° 0 mm 2 mps 654 mmHg 36%
    22:00 +9°C° 0 mm 2 mps 654 mmHg 38%
    23:00 +9°C° 0 mm 2 mps 654 mmHg 41%

    Tomorrow, 17 July, Wednesday

    Time Temperature Precipitation Wind Pressure Humidity
    00:00 +9°C° 0 mm 2 mps 654 mmHg 42%
    01:00 +8°C° 0 mm 2 mps 654 mmHg 43%
    02:00 +8°C° 0 mm 2 mps 654 mmHg 44%
    03:00 +8°C° 0 mm 2 mps 654 mmHg 45%
    04:00 +7°C° 0 mm 2 mps 654 mmHg 47%
    05:00 +7°C° 0 mm 2 mps 654 mmHg 48%
    06:00 +7°C° 0 mm 3 mps 654 mmHg 46%
    07:00 +8°C° 0 mm 3 mps 655 mmHg 44%
    08:00 +9°C° 0 mm 3 mps 656 mmHg 43%
    09:00 +12°C° 0 mm 4 mps 657 mmHg 37%
    10:00 +15°C° 0 mm 4 mps 657 mmHg 31%
    11:00 +19°C° 0 mm 5 mps 658 mmHg 25%
    12:00 +20°C° 0 mm 4 mps 658 mmHg 22%
    13:00 +22°C° 0 mm 3 mps 657 mmHg 19%
    14:00 +24°C° 0 mm 2 mps 656 mmHg 17%
    15:00 +23°C° 0 mm 2 mps 656 mmHg 17%
    16:00 +23°C° 0 mm 2 mps 656 mmHg 17%
    17:00 +22°C° 0 mm 1 mps 656 mmHg 18%
    18:00 +19°C° 0 mm 1 mps 655 mmHg 26%
    19:00 +15°C° 0 mm 1 mps 654 mmHg 33%
    20:00 +11°C° 0 mm 1 mps 653 mmHg 41%
    21:00 +11°C° 0 mm 1 mps 653 mmHg 42%
    22:00 +11°C° 0 mm 1 mps 654 mmHg 44%
    23:00 +10°C° 0 mm 1 mps 654 mmHg 45%

    Day after tomorrow, 18 July, Thursday

    Time Temperature Precipitation Wind Pressure Humidity
    00:00 +10°C° 0 mm 1 mps 654 mmHg 45%
    01:00 +10°C° 0 mm 1 mps 653 mmHg 46%
    02:00 +9°C° 0 mm 1 mps 653 mmHg 46%
    03:00 +9°C° 0 mm 1 mps 653 mmHg 47%
    04:00 +9°C° 0 mm 1 mps 653 mmHg 47%
    05:00 +8°C° 0 mm 1 mps 652 mmHg 47%
    06:00 +10°C° 0 mm 1 mps 653 mmHg 44%
    07:00 +11°C° 0 mm 1 mps 654 mmHg 40%
    08:00 +12°C° 0 mm 1 mps 655 mmHg 36%
    09:00 +15°C° 0 mm 2 mps 656 mmHg 30%
    10:00 +19°C° 0 mm 2 mps 657 mmHg 24%
    11:00 +23°C° 0 mm 2 mps 657 mmHg 17%
    12:00 +24°C° 0 mm 2 mps 657 mmHg 16%
    13:00 +25°C° 0 mm 1 mps 656 mmHg 14%
    14:00 +26°C° 0 mm 1 mps 656 mmHg 12%
    15:00 +25°C° 0 mm 1 mps 655 mmHg 13%
    16:00 +25°C° 0 mm 1 mps 655 mmHg 13%
    17:00 +24°C° 0 mm 1 mps 654 mmHg 14%
    18:00 +21°C° 0 mm 1 mps 654 mmHg 19%
    19:00 +16°C° 0 mm 1 mps 653 mmHg 24%
    20:00 +13°C° 0 mm 1 mps 652 mmHg 29%
    21:00 +12°C° 0 mm 1 mps 652 mmHg 34%
    22:00 +11°C° 0 mm 1 mps 652 mmHg 38%
    23:00 +10°C° 0 mm 1 mps 652 mmHg 42%

    19 July, Friday

    Time Temperature Precipitation Wind Pressure Humidity
    00:00 +10°C° 0 mm 1 mps 652 mmHg 43%
    01:00 +9°C° 0 mm 1 mps 652 mmHg 44%
    02:00 +9°C° 0 mm 1 mps 651 mmHg 45%
    03:00 +9°C° 0 mm 1 mps 651 mmHg 45%
    04:00 +9°C° 0 mm 1 mps 651 mmHg 44%
    05:00 +9°C° 0 mm 1 mps 651 mmHg 44%
    06:00 +10°C° 0 mm 1 mps 652 mmHg 38%
    07:00 +11°C° 0 mm 1 mps 652 mmHg 33%
    08:00 +13°C° 0 mm 1 mps 653 mmHg 27%
    09:00 +16°C° 0 mm 1 mps 654 mmHg 22%
    10:00 +20°C° 0 mm 2 mps 655 mmHg 17%
    11:00 +25°C° 0 mm 3 mps 657 mmHg 12%
    12:00 +25°C° 0 mm 4 mps 656 mmHg 11%
    13:00 +26°C° 0 mm 4 mps 656 mmHg 10%
    14:00 +27°C° 0 mm 5 mps 655 mmHg 10%
    15:00 +26°C° 0 mm 4 mps 655 mmHg 10%
    16:00 +25°C° 0 mm 4 mps 654 mmHg 11%
    17:00 +23°C° 0 mm 4 mps 654 mmHg 11%
    18:00 +20°C° 0 mm 3 mps 653 mmHg 14%
    19:00 +17°C° 0 mm 3 mps 653 mmHg 18%
    20:00 +14°C° 0 mm 2 mps 652 mmHg 21%
    21:00 +13°C° 0 mm 2 mps 652 mmHg 22%
    22:00 +12°C° 0 mm 2 mps 652 mmHg 24%
    23:00 +10°C° 0 mm 2 mps 652 mmHg 25%

    20 July, Saturday

    Time Temperature Precipitation Wind Pressure Humidity
    00:00 +10°C° 0 mm 2 mps 652 mmHg 25%
    01:00 +9°C° 0 mm 2 mps 652 mmHg 26%
    02:00 +8°C° 0 mm 2 mps 651 mmHg 26%
    03:00 +8°C° 0 mm 2 mps 651 mmHg 30%
    04:00 +8°C° 0 mm 2 mps 651 mmHg 33%
    05:00 +8°C° 0 mm 2 mps 651 mmHg 36%
    06:00 +8°C° 0 mm 2 mps 652 mmHg 39%
    07:00 +9°C° 0 mm 2 mps 653 mmHg 42%
    08:00 +10°C° 0 mm 2 mps 654 mmHg 45%
    09:00 +14°C° 0 mm 2 mps 655 mmHg 37%
    10:00 +18°C° 0 mm 2 mps 655 mmHg 30%
    11:00 +21°C° 0 mm 2 mps 656 mmHg 22%
    12:00 +24°C° 0 mm 2 mps 656 mmHg 20%
    13:00 +25°C° 0 mm 2 mps 656 mmHg 17%
    14:00 +26°C° 0 mm 3 mps 655 mmHg 14%
    15:00 +25°C° 0 mm 3 mps 655 mmHg 15%
    16:00 +24°C° 0 mm 3 mps 654 mmHg 15%
    17:00 +24°C° 0 mm 3 mps 654 mmHg 16%
    18:00 +20°C° 0 mm 3 mps 654 mmHg 20%
    19:00 +17°C° 0 mm 3 mps 653 mmHg 24%
    20:00 +13°C° 0 mm 3 mps 653 mmHg 27%
    21:00 +12°C° 0 mm 3 mps 653 mmHg 27%
    22:00 +12°C° 0 mm 2 mps 653 mmHg 27%
    23:00 +12°C° 0 mm 2 mps 653 mmHg 27%

    21 July, Sunday

    Time Temperature Precipitation Wind Pressure Humidity
    00:00 +10°C° 0 mm 2 mps 653 mmHg 29%
    01:00 +9°C° 0 mm 2 mps 652 mmHg 31%
    02:00 +8°C° 0 mm 2 mps 652 mmHg 33%
    03:00 +8°C° 0 mm 2 mps 652 mmHg 34%
    04:00 +8°C° 0 mm 2 mps 652 mmHg 34%
    05:00 +7°C° 0 mm 2 mps 652 mmHg 35%
    06:00 +8°C° 0 mm 2 mps 653 mmHg 32%
    07:00 +9°C° 0 mm 3 mps 654 mmHg 30%
    08:00 +9°C° 0 mm 3 mps 655 mmHg 28%
    09:00 +12°C° 0 mm 4 mps 655 mmHg 29%
    10:00 +14°C° 0 mm 5 mps 656 mmHg 30%
    11:00 +17°C° 0 mm 6 mps 656 mmHg 30%
    12:00 +19°C° 0 mm 6 mps 656 mmHg 30%
    13:00 +21°C° 0 mm 6 mps 656 mmHg 30%
    14:00 +22°C° 0 mm 5 mps 656 mmHg 30%
    15:00 +21°C° 0 mm 6 mps 656 mmHg 34%
    16:00 +20°C° 0 mm 6 mps 655 mmHg 39%
    17:00 +20°C° 0 mm 6 mps 655 mmHg 43%
    18:00 +16°C° 0 mm 5 mps 655 mmHg 53%
    19:00 +14°C° 0 mm 5 mps 654 mmHg 62%
    20:00 +10°C° 0 mm 5 mps 654 mmHg 72%
    21:00 +9°C° 0 mm 5 mps 654 mmHg 75%
    22:00 +9°C° 0 mm 5 mps 654 mmHg 78%
    23:00 +8°C° 0 mm 5 mps 655 mmHg 82%
    Show more